GEFSMW_500_meanwind_114.txt.gz
Wind_Speed
33 33 32 32 31 31 30 30 30 29 29 29 29 29 29 29 30 30 30 31 32 32 33 33 34 35 35 36 36 37 37 38 39 39 39 40 41 42 43 44 45 45 46
33 33 33 33 32 31 31 31 30 30 30 30 30 30 30 30 31 31 31 32 33 33 34 34 35 36 37 37 38 38 39 40 41 41 41 40 41 42 43 45 46 46 47
34 34 33 33 32 32 32 31 31 31 30 30 31 31 31 32 32 32 33 33 34 34 35 36 37 37 38 39 40 40 41 41 42 43 43 43 42 42 42 44 46 47 48
35 34 34 34 33 33 32 32 32 31 31 31 31 32 32 32 33 33 34 35 35 36 36 37 38 39 40 40 41 42 42 43 44 45 46 47 47 46 44 44 46 48 49
35 34 34 33 32 32 32 32 32 32 32 32 32 32 33 33 34 34 35 36 36 37 38 39 40 40 41 42 43 44 44 45 46 47 47 49 49 50 50 48 48 49 51
34 33 32 32 32 32 32 32 32 32 32 32 33 33 34 34 35 35 36 37 37 38 40 41 41 42 43 44 45 46 46 47 48 48 49 50 51 52 54 54 53 52 52
32 31 31 31 32 32 32 32 33 33 33 33 34 35 35 36 36 37 37 38 39 40 41 42 43 44 45 46 46 47 48 48 49 50 51 52 53 55 56 57 57 56 55
30 30 30 31 32 32 32 33 33 33 34 34 35 36 36 36 37 38 38 39 40 41 42 43 44 45 46 47 47 48 48 49 50 51 52 53 55 56 58 59 59 59 57
29 29 30 31 31 32 32 33 33 34 35 35 36 36 37 37 38 39 39 40 41 42 44 45 46 46 47 47 48 49 50 51 52 53 54 56 57 58 59 60 61 61 61
30 30 30 31 31 31 32 33 34 35 35 36 36 37 38 39 39 40 41 42 43 44 45 46 47 47 48 49 49 50 51 53 54 55 56 57 58 59 60 61 61 62 63
30 30 30 31 32 32 33 34 34 35 36 37 38 39 39 40 41 42 43 44 45 46 47 47 48 49 49 50 51 52 53 54 55 55 56 58 59 59 60 61 62 63 64
31 31 31 31 32 32 33 34 35 36 37 38 39 40 41 41 43 44 45 46 47 48 48 49 49 50 51 52 53 54 54 55 56 57 58 58 60 60 61 62 63 64 66
31 31 32 32 32 33 34 35 36 37 39 40 40 41 42 43 44 46 47 47 48 49 50 50 51 52 53 53 54 55 55 56 57 58 59 60 61 62 63 64 65 67 68
31 32 32 32 33 34 35 36 37 39 40 41 42 43 44 44 45 46 47 48 49 50 51 52 52 53 54 55 55 56 56 57 59 60 61 62 63 64 65 66 67 69 70
31 32 33 34 34 35 36 38 39 40 41 42 43 44 45 45 46 48 49 50 51 52 52 53 54 55 55 56 57 57 58 59 60 61 62 64 65 66 67 69 70 71 71
33 33 34 34 35 36 37 38 40 41 42 43 44 45 46 47 48 49 50 51 52 53 53 54 55 56 57 58 59 60 60 61 63 63 64 65 67 68 69 71 72 73 73
35 35 35 35 35 36 38 39 41 41 42 44 45 46 47 48 49 50 51 52 53 54 55 55 57 58 59 60 61 62 63 64 65 66 67 68 69 71 71 72 72 73 75
35 35 35 36 37 38 39 40 41 42 43 44 45 47 48 49 50 51 52 53 54 55 56 57 58 60 61 62 63 64 66 66 67 68 70 71 72 73 74 74 74 74 75
35 35 36 37 37 38 39 40 41 42 44 45 46 47 48 49 51 52 53 55 56 57 58 59 60 61 62 64 66 67 68 68 69 71 72 74 74 74 76 77 76 75 74
35 36 37 37 38 39 40 41 42 43 45 46 47 48 49 51 52 54 55 56 57 58 60 61 62 64 65 67 68 70 71 72 72 73 74 75 76 76 77 78 77 75 73
36 37 38 38 39 40 41 42 43 44 46 47 48 49 51 52 54 55 56 58 59 60 62 63 64 66 68 69 71 73 74 75 75 75 75 76 76 77 77 77 76 75 72
37 38 39 39 40 40 42 43 44 45 47 48 49 51 52 54 55 57 58 60 61 62 63 65 66 68 70 72 74 75 77 78 78 77 77 77 77 77 77 76 74 71 68
38 38 38 39 40 42 43 44 45 46 48 49 51 52 54 55 57 58 60 61 63 65 66 68 69 70 72 74 76 77 78 79 79 78 78 78 77 76 74 72 69 66 62
38 38 39 40 42 43 44 45 47 48 49 50 52 54 55 56 58 60 61 63 65 67 69 71 72 74 75 76 78 78 79 78 79 79 78 77 75 73 70 66 62 59 56
38 39 40 42 43 44 45 46 48 49 50 52 53 55 56 58 59 61 63 65 67 70 72 74 76 77 77 78 79 79 79 79 80 79 77 75 71 67 63 59 56 53 51
39 40 42 43 44 45 46 48 49 50 51 53 54 56 58 59 61 63 65 67 70 72 75 77 78 79 79 79 80 80 80 80 79 78 74 70 65 61 58 54 51 48 46

GEFSMW_500_meanwind_120.txt.gz
Wind_Speed
36 34 34 33 33 33 33 33 33 32 32 33 33 33 32 32 31 31 31 31 31 32 32 33 33 33 34 34 34 35 35 36 36 36 37 37 38 39 40 41 42 42 43
36 35 34 34 34 34 33 33 33 33 33 33 33 33 32 32 31 31 31 32 32 33 33 33 34 34 34 35 35 36 36 37 37 37 37 38 39 40 41 43 44 44 45
36 35 35 34 34 33 33 33 33 33 33 33 33 33 32 32 32 32 32 32 33 33 34 34 35 35 36 36 36 37 37 38 38 39 39 39 39 40 42 44 45 46 46
35 35 34 34 34 34 34 34 34 33 33 33 33 32 32 32 32 32 32 33 33 34 34 35 36 36 37 37 38 38 39 39 40 41 42 42 43 43 42 42 44 46 47
35 35 34 34 34 33 33 33 34 34 33 33 32 32 32 33 33 32 33 33 34 34 35 35 36 37 38 38 39 39 40 41 42 42 43 44 44 45 44 43 44 45 47
34 34 34 33 33 32 33 33 32 32 32 32 32 32 32 32 33 33 33 34 34 35 36 37 38 38 39 39 40 41 41 42 43 44 44 45 45 46 46 46 46 46 47
33 33 32 32 32 32 31 31 31 31 31 31 32 32 32 32 33 34 34 35 35 36 37 38 38 39 40 41 41 42 43 44 44 45 45 46 47 48 48 49 49 49 49
31 31 31 31 31 30 30 30 30 31 31 31 32 32 32 33 34 34 35 36 36 37 38 39 39 40 41 42 43 44 44 45 45 46 47 47 48 49 50 51 52 51 51
30 30 30 31 30 30 30 30 30 30 31 31 32 32 33 33 34 34 35 36 37 38 39 40 41 42 42 43 44 44 45 46 47 47 48 49 50 51 52 52 53 54 53
29 29 30 30 30 31 31 31 30 31 31 32 32 33 33 34 35 36 36 37 39 40 40 41 42 43 44 44 45 46 47 47 48 49 49 50 51 52 53 53 54 55 56
29 29 30 30 30 30 30 30 30 31 31 32 32 34 35 35 35 36 37 38 40 41 41 42 43 44 45 45 46 47 48 48 49 50 51 52 53 53 54 55 56 58 59
29 30 30 30 30 30 30 30 31 31 32 33 34 35 35 35 36 37 38 39 41 42 43 44 44 45 46 47 48 48 49 50 51 52 53 54 55 56 57 57 58 59 61
29 29 30 30 30 30 31 31 31 32 33 34 34 35 35 36 38 39 40 41 42 43 44 44 45 46 47 48 49 50 51 52 53 54 55 56 57 58 59 60 61 62 63
29 29 28 29 30 30 30 31 32 33 33 34 35 35 37 38 40 40 41 42 43 44 45 46 46 48 49 50 51 52 53 54 55 56 57 58 59 60 61 62 63 64 65
28 28 28 29 30 31 31 32 33 34 34 35 35 37 38 40 41 42 42 43 44 45 46 47 48 50 51 52 54 54 55 56 57 58 59 60 61 62 63 64 65 66 67
29 30 30 31 31 32 32 32 33 34 34 35 36 38 39 41 42 43 43 44 45 46 47 49 50 51 53 54 55 56 56 57 58 60 61 62 63 64 65 66 68 69 70
30 31 31 32 32 32 32 33 34 35 36 37 38 39 40 41 42 43 43 44 46 48 49 50 52 53 55 55 56 58 59 60 61 62 63 64 65 66 68 70 70 71 72
30 31 31 31 31 32 33 34 35 36 37 38 39 40 41 42 42 43 44 46 48 49 51 52 54 55 56 57 58 60 61 62 63 64 65 66 67 69 71 72 72 72 73
30 30 30 31 32 33 34 35 35 36 37 38 39 40 41 42 43 44 46 48 50 51 53 54 55 56 57 59 60 61 62 63 64 65 67 68 70 72 74 74 74 74 74
30 30 31 32 33 33 34 35 36 36 37 38 39 40 41 42 44 46 48 49 51 52 53 55 56 57 59 60 62 63 64 65 66 68 69 71 72 73 74 75 76 75 75
30 31 31 32 33 33 34 35 35 36 37 38 39 40 42 43 45 47 49 50 52 53 55 56 57 59 60 62 63 65 67 68 69 70 71 72 74 74 75 76 76 76 76
29 30 30 31 32 33 34 35 35 36 37 39 40 41 43 45 47 48 50 51 53 54 56 57 59 60 62 64 65 67 69 70 72 72 73 74 75 75 75 75 76 76 76
30 30 31 32 32 33 34 35 36 37 38 40 41 43 44 46 48 50 51 53 54 56 57 59 61 62 64 66 67 69 70 72 73 74 75 75 75 75 75 75 74 74 71
31 31 32 32 33 34 34 36 37 39 40 41 43 44 46 47 49 51 52 54 56 58 60 61 63 65 66 68 69 70 71 72 73 75 75 75 74 74 74 72 70 67 64
32 32 33 33 34 35 36 37 39 40 41 43 45 46 48 49 51 52 54 56 57 60 62 64 65 67 68 69 71 71 72 73 75 76 75 75 73 72 70 67 64 61 58
33 33 34 35 36 37 38 39 40 42 44 45 47 48 50 51 52 54 56 58 60 62 64 66 67 69 70 71 72 72 74 75 76 76 75 73 71 69 65 62 58 56 53

GEFSMW_500_meanwind_126.txt.gz
Wind_Speed
37 36 36 36 36 36 36 36 36 36 36 35 36 36 36 35 35 34 34 33 33 34 34 34 33 33 34 35 35 35 35 35 35 35 35 35 36 36 36 37 38 38 38
37 37 36 36 36 36 36 36 36 36 36 36 36 36 36 35 34 34 33 34 34 34 34 33 34 34 34 34 35 35 36 36 36 35 35 35 36 37 37 38 39 39 39
38 38 37 37 37 36 37 36 36 36 37 36 36 36 35 35 34 34 34 34 34 33 33 33 34 35 35 35 36 36 36 36 36 36 37 36 36 36 37 39 40 41 41
38 38 37 37 37 37 37 37 36 36 36 36 36 35 35 35 35 35 34 34 33 34 34 35 35 35 36 36 36 37 37 37 37 37 38 38 38 37 37 38 40 40 41
37 37 37 36 37 36 36 36 36 36 36 36 35 35 34 34 34 34 33 34 34 34 35 35 35 36 36 36 37 37 37 37 38 38 39 39 40 40 40 39 39 40 41
36 36 36 35 35 35 35 35 35 35 35 35 35 34 34 34 33 33 33 34 34 34 35 35 35 35 36 37 37 37 38 38 39 40 40 41 41 41 41 40 40 40 41
34 34 34 34 33 33 34 34 34 34 34 34 34 34 34 34 33 33 33 33 34 34 34 35 35 36 37 37 37 38 39 40 40 41 41 42 42 42 42 42 41 41 42
33 33 33 33 33 33 33 33 33 33 33 33 34 34 34 34 33 33 34 34 34 34 34 35 36 37 37 38 39 40 40 41 41 42 42 42 43 43 44 44 44 44 44
33 33 33 33 33 32 32 32 33 33 33 33 34 34 34 34 34 34 34 34 34 34 35 35 36 37 38 39 40 41 41 42 42 42 43 43 44 45 46 46 47 47 47
32 32 32 32 32 32 32 32 32 33 33 33 33 33 34 34 34 34 34 35 35 35 36 36 37 38 39 41 41 42 42 42 43 44 45 46 47 47 48 48 49 50 50
31 31 31 31 31 31 31 32 32 32 32 32 33 34 34 34 34 34 35 35 36 36 36 37 38 40 41 42 43 43 43 44 45 46 47 48 49 49 50 51 52 52 53
30 30 30 31 31 31 31 31 32 32 32 33 33 34 34 34 34 35 35 36 36 37 38 39 40 41 42 43 44 44 44 45 46 48 49 50 51 51 52 53 54 55 56
30 30 31 31 31 31 31 31 32 32 32 33 33 33 34 34 35 36 36 37 37 38 39 40 41 42 43 44 44 45 46 47 48 50 51 52 53 53 54 56 56 57 58
31 31 31 31 31 31 31 32 32 33 33 33 33 33 34 35 36 36 37 38 38 39 40 41 42 43 44 45 46 47 48 49 51 52 53 54 55 56 57 58 59 60 61
31 31 31 31 31 31 31 32 32 33 33 33 34 34 35 35 36 36 37 38 39 40 41 42 43 44 45 47 48 49 50 52 53 54 55 56 57 58 59 60 61 63 64
31 31 31 31 31 31 31 32 32 33 33 34 34 34 35 36 36 37 38 39 40 41 42 44 45 46 47 48 49 51 52 54 55 56 57 58 59 60 62 63 64 65 66
31 31 30 31 31 31 31 31 32 33 33 33 34 35 35 36 37 38 39 40 41 42 44 45 47 48 49 50 51 53 55 56 57 58 59 60 61 63 64 64 65 67 68
31 30 30 30 30 30 31 31 32 33 33 34 34 35 36 37 38 39 40 41 42 43 45 46 47 48 49 51 53 55 56 58 59 60 61 62 63 64 65 66 67 68 69
30 30 29 29 30 30 31 32 32 33 33 34 35 36 37 38 38 39 40 41 43 45 46 47 48 50 52 54 55 57 58 59 60 61 62 63 64 65 67 68 69 68 68
30 30 30 30 30 30 31 32 32 33 33 34 35 36 37 38 39 40 41 43 44 45 47 48 50 52 53 55 57 59 60 61 62 62 63 65 66 67 68 69 69 69 69
30 30 30 30 30 31 31 32 32 32 33 34 35 36 37 38 39 41 42 44 45 47 48 50 52 53 55 57 59 60 62 62 62 63 64 66 67 68 68 69 69 70 70
30 30 31 31 31 31 32 32 32 33 34 35 36 37 38 39 41 42 44 45 47 48 50 52 53 55 57 58 60 62 63 63 64 65 66 67 68 68 68 69 70 70 72
30 31 31 31 31 32 32 33 33 34 35 36 37 38 39 41 42 43 45 47 48 50 52 54 55 56 58 60 61 62 63 65 66 67 67 68 68 68 68 69 70 71 71
31 31 31 32 32 33 33 34 35 36 37 37 38 39 41 42 43 45 47 48 50 52 53 55 56 58 59 60 62 63 65 66 67 68 68 68 68 68 69 69 69 68 68
31 32 32 32 33 34 34 35 36 37 38 38 40 41 42 44 45 47 48 50 52 53 55 56 58 59 60 61 63 65 66 67 68 69 68 68 68 68 67 67 65 64 63
32 32 33 33 34 35 36 37 38 38 39 40 41 43 44 45 47 48 49 51 53 55 56 58 59 60 62 63 65 66 67 68 69 69 68 68 67 66 65 64 63 61 60

GEFSMW_500_meanwind_132.txt.gz
Wind_Speed
33 33 32 32 32 32 32 32 32 32 32 32 32 32 33 33 32 32 33 34 34 34 34 34 34 34 34 34 34 34 34 35 35 35 36 36 37 37 37 37 37 37 37
34 34 34 33 33 32 32 33 33 33 33 33 33 33 33 33 33 33 34 34 35 35 34 34 34 34 34 34 34 35 35 35 35 35 35 36 36 36 37 37 37 38 38
35 35 35 35 34 34 34 34 34 34 33 33 33 33 33 33 33 34 34 35 35 35 34 34 34 34 34 34 35 35 35 35 35 35 36 35 35 35 36 38 39 39 40
37 36 36 36 35 35 34 34 34 33 33 33 33 34 34 33 34 35 35 35 34 34 34 34 34 34 34 35 35 35 35 35 35 36 36 36 36 36 36 38 39 40 40
37 36 35 35 35 35 34 34 34 33 33 33 33 34 34 34 34 34 34 34 34 34 34 34 34 34 34 35 35 35 35 36 36 36 37 37 37 37 37 37 38 39 41
36 35 34 34 34 34 33 33 33 33 33 33 33 33 33 33 34 34 34 34 34 34 34 34 34 34 35 35 35 36 36 37 37 38 38 39 39 39 39 39 39 39 40
34 33 33 33 33 32 32 33 33 32 32 32 32 33 33 33 33 33 33 34 34 34 34 34 34 35 35 35 36 37 37 37 38 39 39 39 40 40 41 41 41 41 41
33 33 33 32 32 31 31 32 32 31 31 31 32 32 33 32 32 32 33 33 33 34 34 35 35 35 36 36 37 38 38 38 39 39 40 41 41 42 42 43 43 43 43
32 32 32 31 31 31 31 31 31 31 31 31 31 31 31 31 31 32 32 33 34 34 35 35 35 36 36 37 37 37 38 39 40 40 41 42 43 44 44 44 45 46 45
32 32 31 31 30 30 30 30 30 30 30 31 31 31 31 31 31 31 32 33 34 34 34 35 36 36 37 37 37 38 39 40 41 42 42 43 44 45 45 46 47 48 48
30 30 30 30 30 30 30 30 30 29 29 29 30 30 30 30 30 31 32 33 34 35 35 35 36 37 37 37 38 39 40 41 41 42 43 44 45 46 47 48 49 50 51
29 29 29 29 29 29 30 29 29 29 29 29 29 29 30 30 30 31 32 34 34 35 35 36 36 36 37 38 39 40 41 41 42 44 45 46 47 47 48 50 51 53 54
29 29 29 28 29 29 29 29 29 29 29 29 30 30 30 31 31 32 33 34 35 35 35 36 36 37 38 39 40 41 42 43 44 45 46 48 48 49 51 53 54 56 57
29 29 28 28 29 29 29 29 29 29 29 30 30 30 31 31 32 33 33 34 34 35 36 37 37 38 39 40 41 42 43 44 46 47 48 49 50 52 54 55 57 58 59
29 28 28 28 28 28 28 29 29 29 30 30 30 31 31 32 33 33 34 34 35 36 37 38 38 39 40 41 42 44 45 46 47 49 50 51 53 55 56 58 59 60 61
29 29 29 28 28 28 28 29 29 30 30 30 30 31 32 33 33 34 34 35 36 36 37 38 39 40 41 42 44 45 46 47 49 50 51 53 54 56 58 59 61 62 63
30 29 29 29 29 28 28 29 30 30 30 31 31 32 32 33 34 34 35 35 37 38 38 39 40 41 42 44 45 47 48 49 50 51 53 54 56 58 60 61 62 63 64
31 30 29 29 29 29 29 29 30 30 30 31 31 32 32 33 34 34 35 36 37 38 39 40 41 42 44 45 46 48 49 50 51 53 55 56 58 60 61 62 63 63 64
31 30 30 30 29 30 30 30 30 30 30 31 31 32 33 33 34 34 35 36 37 38 40 41 42 43 44 46 47 48 50 51 53 55 57 58 60 61 62 63 63 64 64
32 31 30 30 30 30 30 30 30 30 31 31 31 32 33 33 34 35 36 37 38 39 41 42 43 44 45 46 48 50 52 53 55 57 58 60 61 62 63 64 65 65 65
31 30 30 30 30 30 30 30 30 31 31 32 32 33 33 34 35 36 37 38 39 41 42 43 43 44 46 48 50 52 53 55 57 58 60 61 62 62 64 65 66 67 67
30 30 30 30 30 30 30 30 31 31 32 32 32 33 34 35 36 37 38 39 40 41 42 43 44 46 48 50 51 53 55 56 58 60 61 61 62 63 65 66 67 67 68
31 30 30 30 30 30 30 31 31 32 32 32 33 34 35 36 37 38 39 40 41 42 43 44 46 47 49 51 52 54 56 58 60 61 61 61 62 63 65 66 67 67 66
31 31 31 31 31 31 32 31 31 32 32 33 34 35 36 37 38 39 40 41 42 43 44 46 47 48 50 52 53 55 57 59 60 61 61 62 63 64 65 66 66 65 64
31 31 31 31 32 32 32 32 32 33 34 35 35 36 37 38 38 40 41 42 43 44 45 47 48 49 51 53 55 57 59 60 61 61 62 63 65 65 65 64 63 62 61
31 30 31 32 32 32 32 33 33 34 35 36 36 37 38 39 40 41 42 43 44 45 46 48 49 51 53 55 57 59 60 61 62 62 63 64 65 64 63 62 61 59 58

GEFSMW_500_meanwind_138.txt.gz
Wind_Speed
32 32 31 30 29 29 29 29 29 29 29 29 29 29 30 31 31 32 32 32 32 33 33 34 34 34 34 35 36 36 36 36 36 36 36 37 37 38 38 37 37 37 37
35 34 33 32 31 31 30 30 30 30 30 30 31 31 31 31 31 32 32 33 33 33 34 34 34 34 34 35 36 36 36 36 36 36 36 37 37 37 37 37 38 38 38
37 36 35 34 33 32 32 31 31 32 32 32 33 32 32 32 32 32 33 34 34 34 34 35 35 35 35 35 35 35 36 36 36 36 37 37 37 37 37 38 38 39 39
39 38 37 36 35 34 34 33 33 33 33 33 33 33 33 32 33 34 34 35 35 35 35 35 35 35 35 35 35 36 36 36 36 37 37 38 38 37 37 38 38 39 39
41 40 38 37 36 36 35 34 34 34 34 34 34 34 33 34 35 35 35 35 35 35 36 36 35 35 35 35 35 36 36 36 37 38 38 39 39 38 38 38 39 40 40
42 41 39 38 37 36 36 35 35 34 34 34 34 34 34 34 35 35 35 35 35 36 36 36 36 35 35 36 36 36 37 37 38 38 39 39 39 39 39 39 40 40 41
43 41 40 39 38 37 36 36 35 35 35 34 34 34 34 35 35 35 35 35 35 35 36 36 35 35 35 36 36 36 37 38 38 39 39 40 40 40 40 41 41 41 42
43 41 40 39 38 37 37 36 36 35 35 34 34 34 35 35 35 35 35 35 35 35 36 35 35 35 35 36 36 37 38 38 39 39 39 40 40 40 42 42 43 43 42
42 40 39 38 38 37 37 36 36 35 35 35 35 35 35 35 35 35 35 35 35 35 35 35 35 35 35 36 37 37 38 38 39 39 40 40 41 42 43 44 44 45 45
40 39 38 37 37 37 36 36 36 35 35 35 35 35 35 35 35 35 34 34 34 35 35 35 35 35 36 37 37 38 38 39 39 40 41 41 42 44 45 45 45 46 48
38 38 38 37 37 36 36 36 36 36 36 35 35 35 35 34 34 34 34 34 35 35 35 36 36 36 37 37 38 38 39 39 40 41 42 43 44 45 46 46 47 49 50
37 37 37 37 37 37 37 37 36 36 35 35 35 34 34 34 34 34 34 35 35 35 35 36 36 37 37 38 38 39 40 40 41 42 43 44 45 46 47 48 49 50 52
36 36 36 37 37 37 37 37 36 36 35 34 34 34 33 34 34 34 34 35 35 35 36 36 37 37 38 38 39 40 40 41 42 43 44 45 46 47 48 49 51 53 54
36 36 36 36 36 36 36 36 35 35 34 34 34 33 33 33 34 34 34 35 35 35 36 37 37 38 38 39 40 40 41 42 43 44 45 46 47 48 50 52 53 55 57
36 37 36 36 36 35 35 35 35 34 34 34 33 33 33 33 33 33 34 34 35 36 36 37 38 38 38 39 40 41 42 43 44 45 46 48 49 51 52 54 56 57 59
37 37 37 36 35 35 35 35 35 34 34 33 33 33 33 33 33 34 34 34 35 36 37 37 38 38 39 40 41 42 43 44 45 46 47 49 51 53 54 56 58 59 61
38 37 36 36 36 35 35 35 35 34 34 33 33 33 33 33 33 34 34 35 36 36 37 37 38 39 39 40 42 43 44 45 46 47 49 51 53 55 56 57 59 61 62
39 38 37 37 36 36 36 35 35 34 34 34 33 33 33 33 34 34 35 35 36 37 37 38 39 39 40 41 43 44 45 46 47 49 50 52 54 56 57 58 60 61 62
41 39 38 38 37 36 36 36 35 35 34 34 34 33 34 34 34 35 35 36 37 38 38 38 39 39 40 42 43 45 46 47 48 50 52 53 55 56 58 60 61 61 61
40 39 38 38 37 36 36 35 35 35 34 34 34 34 35 35 35 35 36 37 37 38 38 38 39 40 41 43 44 46 47 48 49 51 52 54 56 57 59 61 61 61 61
40 39 39 38 37 37 36 35 35 35 35 35 35 35 35 35 36 36 37 37 38 38 38 39 40 41 43 44 45 46 47 48 50 51 53 55 57 58 60 61 61 60 61
40 40 39 39 38 37 36 35 35 35 35 35 35 35 35 36 36 37 37 37 38 38 39 40 41 42 43 45 46 47 48 49 51 52 54 55 57 58 60 60 60 61 62
39 39 39 38 38 37 36 36 35 35 35 35 35 35 35 36 36 37 37 37 38 38 40 41 42 43 44 46 46 47 49 50 51 52 54 56 58 59 60 60 61 61 62
38 38 38 37 37 37 37 36 36 36 36 35 35 35 36 36 36 37 37 37 38 39 40 41 43 44 45 46 47 48 49 50 51 53 55 57 58 59 60 61 61 61 61
37 37 37 36 36 36 36 35 35 35 35 35 35 36 35 36 36 36 37 38 39 40 41 42 43 44 45 46 47 48 49 51 53 55 56 57 58 59 60 61 61 60 60
35 35 35 35 35 35 35 34 34 35 35 35 35 35 35 36 36 37 38 39 40 40 41 42 43 44 45 46 47 49 51 53 54 55 56 57 58 59 60 60 58 58 57

GEFSMW_500_meanwind_144.txt.gz
Wind_Speed
38 37 35 34 32 30 29 29 28 27 26 25 25 25 26 26 26 26 26 27 27 28 28 28 29 29 30 30 31 32 33 33 33 33 33 33 33 34 34 34 35 35 35
40 38 37 35 34 32 31 30 29 28 27 27 27 27 27 27 27 27 28 28 28 29 28 29 29 30 31 32 32 33 33 33 33 33 33 33 33 34 34 34 35 35 36
41 40 38 37 35 34 33 32 31 30 29 29 29 29 28 28 28 29 29 29 29 29 29 30 31 31 32 33 33 33 33 33 33 33 33 33 33 34 34 34 35 35 35
42 41 40 38 37 35 34 33 32 32 31 31 30 30 29 29 30 30 30 30 30 31 30 31 32 32 33 33 34 34 33 33 33 33 34 34 34 35 34 35 36 36 37
43 42 41 40 38 37 36 35 34 34 33 32 32 31 31 31 31 31 31 31 31 31 31 32 32 33 34 34 34 34 33 33 33 34 34 35 35 35 35 36 36 37 38
45 44 43 42 40 39 38 37 36 35 35 34 33 32 32 32 32 32 32 32 32 32 32 32 33 34 34 34 34 34 33 34 34 34 35 35 36 36 36 37 37 38 39
46 45 44 43 41 40 39 38 37 36 36 35 34 33 33 33 33 33 33 33 33 33 33 33 34 34 34 35 34 34 34 34 35 35 36 36 36 37 37 38 39 39 39
48 46 45 44 43 41 40 39 38 37 36 35 35 34 34 34 34 34 34 34 33 33 34 34 35 35 35 35 34 34 35 35 36 36 37 37 37 38 38 39 40 40 41
48 47 46 45 44 42 41 40 39 38 37 36 36 35 35 35 34 34 34 34 34 34 35 35 35 35 35 35 35 35 35 36 36 37 37 37 38 39 39 40 41 42 43
48 48 46 45 44 43 42 41 40 39 38 37 37 36 36 35 35 35 35 34 35 35 36 35 35 35 35 36 36 36 36 36 37 37 38 39 39 39 40 41 43 44 45
47 47 46 46 45 44 43 42 41 40 39 38 37 37 36 36 36 35 35 35 36 36 36 36 36 36 36 36 36 36 37 37 38 38 39 39 40 41 42 43 44 46 48
45 45 45 45 44 43 42 41 41 40 39 38 38 37 37 36 36 36 35 36 36 36 36 36 36 36 36 37 37 37 37 38 39 39 40 40 41 42 43 44 46 48 49
43 43 43 43 43 42 41 40 40 39 39 38 37 37 36 36 36 36 36 36 36 36 36 36 36 36 36 37 37 37 38 39 39 40 41 41 42 43 44 45 47 49 50
42 42 42 42 42 41 41 40 40 39 38 38 37 37 36 36 36 36 36 36 36 36 36 36 36 36 36 37 37 38 38 39 40 41 41 42 43 44 45 47 48 50 51
41 42 42 41 41 40 40 40 40 39 38 38 37 37 36 36 36 36 36 36 36 36 36 36 36 36 36 37 37 38 39 40 40 41 42 43 44 46 47 49 50 51 53
41 41 41 41 40 40 39 39 38 38 38 37 37 36 36 36 36 35 35 36 36 36 36 36 36 37 37 37 38 39 39 40 41 41 42 44 45 47 48 49 51 52 53
41 41 41 41 40 40 39 38 37 37 37 37 36 36 36 36 36 36 35 36 36 36 36 36 37 37 38 38 38 39 40 40 41 42 43 45 46 47 48 49 51 52 53
42 42 42 42 41 40 39 38 37 37 37 36 36 36 36 36 36 36 36 36 36 36 36 36 37 37 37 38 38 39 40 41 42 43 44 45 46 47 49 50 51 52 54
43 43 42 42 41 40 39 38 38 37 37 37 36 36 36 36 36 36 36 36 36 36 36 36 36 37 37 38 39 40 41 42 42 43 44 45 47 48 49 50 51 53 54
44 44 43 43 41 40 40 39 38 37 37 36 36 36 36 36 36 36 36 35 35 35 36 36 37 37 38 39 40 41 42 42 42 43 45 46 47 48 49 50 52 53 54
45 45 44 43 41 41 40 39 38 37 37 37 36 36 36 36 36 35 35 35 35 36 36 36 37 38 39 39 40 41 42 42 43 44 45 46 47 49 50 51 52 53 55
44 44 43 42 42 41 40 39 39 38 38 37 37 36 36 35 35 35 35 35 35 36 36 36 37 38 39 40 40 41 41 42 43 44 45 46 48 49 50 52 53 54 55
43 43 43 42 42 41 40 39 39 38 38 38 37 36 36 35 35 35 35 35 36 36 36 37 37 38 39 40 41 41 42 43 43 44 45 46 48 49 51 53 54 54 55
43 43 43 42 41 41 40 39 39 38 38 38 37 36 36 35 35 35 35 35 36 36 36 37 38 39 39 40 41 42 42 43 43 44 45 47 49 50 52 53 53 54 56
42 42 41 41 41 40 39 38 38 38 38 37 37 36 36 35 35 35 35 36 36 36 37 38 38 39 40 40 41 41 42 43 44 45 46 48 49 51 52 52 54 55 56
41 41 40 40 40 39 39 38 38 38 37 37 36 35 35 35 35 35 35 36 36 36 37 38 39 39 40 40 41 42 43 43 44 45 46 48 50 51 52 53 54 55 56

GEFSMW_500_meanwind_150.txt.gz
Wind_Speed
45 44 42 40 39 37 35 33 32 31 30 28 27 26 26 25 24 23 22 23 23 23 24 24 25 25 26 26 27 28 29 30 31 32 32 33 34 34 34 34 34 34 34
47 46 44 43 40 38 37 35 34 32 31 30 29 28 27 26 25 24 24 24 24 25 25 25 26 26 27 27 28 29 30 31 32 33 33 34 34 34 34 34 35 35 35
49 47 46 44 42 40 38 36 35 34 33 32 31 30 29 27 27 26 26 26 26 26 26 27 27 28 28 29 29 30 31 32 33 34 34 35 34 35 35 35 36 36 36
51 49 48 46 44 41 39 38 37 36 35 34 33 31 30 29 29 28 28 28 27 27 28 28 28 29 29 30 30 31 32 33 34 34 35 35 35 35 35 36 37 37 37
52 50 49 47 45 43 41 40 39 38 36 35 34 33 31 31 31 30 29 29 29 29 29 29 29 30 30 31 32 32 33 34 34 35 35 36 36 37 36 36 37 38 38
53 51 50 48 46 45 43 42 40 39 37 36 35 34 33 33 32 31 31 30 30 30 30 30 30 31 31 32 33 33 34 35 35 35 36 36 37 37 37 38 38 38 39
53 52 51 50 48 46 44 43 41 40 39 38 36 35 34 34 34 33 32 32 31 31 31 31 31 32 32 33 33 34 35 35 35 36 37 37 37 38 38 39 39 40 40
54 53 52 51 49 47 45 44 43 41 40 39 38 37 36 35 35 34 34 33 33 33 33 32 32 33 33 33 34 35 35 36 36 36 37 38 38 38 39 40 41 41 42
54 54 53 52 50 48 46 45 44 43 41 40 39 38 37 36 36 35 35 34 34 34 34 33 33 34 33 34 35 35 36 36 36 37 38 38 39 39 40 41 42 43 43
54 54 53 53 51 49 47 46 45 44 42 41 40 39 38 38 37 36 36 36 35 35 34 34 34 34 34 34 35 36 36 37 37 38 38 39 40 40 41 42 43 44 45
54 54 53 52 52 51 49 48 46 45 44 43 41 40 39 39 38 37 37 37 36 36 35 35 35 35 35 35 35 36 37 37 38 38 39 40 40 41 42 43 44 45 46
53 54 53 52 52 51 50 48 47 45 44 44 43 42 41 40 38 38 37 37 37 36 36 35 35 35 35 36 36 36 37 38 38 39 40 41 41 42 43 44 44 46 47
52 53 53 52 52 51 50 49 48 47 45 44 43 42 41 40 39 38 38 37 37 37 36 35 35 36 36 36 36 37 38 38 39 40 40 41 42 43 43 44 45 46 47
49 50 51 52 51 51 51 50 49 48 46 45 43 43 42 40 40 39 39 38 38 37 36 36 36 36 36 36 37 37 39 39 40 40 41 42 42 43 44 45 46 47 48
47 48 50 50 50 50 50 50 49 48 47 45 44 43 42 41 40 40 39 38 37 37 36 36 36 36 36 36 37 38 39 40 40 40 41 42 43 44 45 46 47 48 49
44 46 47 48 48 48 49 49 48 47 46 45 44 43 42 42 41 40 39 38 37 36 36 36 36 36 36 37 38 39 39 39 40 40 41 42 43 44 45 46 47 48 49
43 45 45 45 46 47 47 47 47 46 46 45 44 43 42 41 40 40 39 38 38 37 37 37 36 37 37 38 38 39 39 39 39 40 41 42 43 44 45 46 47 48 48
44 44 44 44 44 45 45 46 46 46 45 43 42 42 42 41 40 39 39 39 38 37 37 36 36 37 37 38 38 38 38 38 39 39 41 42 43 44 45 46 46 47 47
46 45 44 44 43 43 44 44 44 44 44 43 42 42 41 40 40 39 39 38 38 37 37 36 36 37 37 37 37 37 38 38 39 40 41 42 43 44 45 45 46 47 47
47 46 45 44 43 43 43 43 43 43 42 42 42 42 41 40 40 39 39 38 37 37 36 36 36 36 36 37 37 37 38 38 39 40 41 42 43 44 44 45 46 47 48
47 46 45 45 44 44 44 43 42 42 42 42 42 42 41 40 39 39 39 38 37 37 36 37 37 36 36 37 37 37 38 39 39 40 41 42 43 44 45 46 47 47 49
47 46 46 46 45 45 44 44 43 42 42 42 41 41 41 40 40 39 39 38 37 37 37 37 37 37 36 37 37 38 38 39 39 40 41 42 43 44 45 46 48 49 50
47 46 46 46 45 45 44 44 43 43 42 41 41 40 40 40 39 39 38 37 37 37 37 36 36 36 36 36 38 38 38 39 39 40 41 42 43 44 46 47 49 50 51
46 46 46 45 45 44 43 43 43 43 42 41 40 40 39 39 38 38 37 37 37 36 36 36 36 35 36 36 37 37 37 38 39 40 41 42 43 45 47 48 49 50 52
45 45 44 44 44 44 44 43 43 42 42 42 41 40 39 38 37 36 36 36 35 35 35 36 36 36 36 36 36 36 37 38 39 40 41 42 44 46 47 49 50 51 52
44 44 45 45 45 44 43 43 42 42 42 42 41 40 39 37 36 35 35 34 35 35 35 35 35 35 35 36 36 37 38 39 40 41 42 43 45 47 48 49 50 51 52

GEFSMW_500_meanwind_156.txt.gz
Wind_Speed
47 45 44 43 42 40 39 38 36 35 34 32 31 30 29 29 28 27 26 25 24 23 23 22 22 22 22 23 23 24 25 26 27 28 29 29 30 32 32 33 34 34 35
49 47 45 44 43 42 40 39 38 36 35 33 32 32 31 30 29 28 27 27 26 25 24 23 23 23 24 24 25 26 26 27 28 29 30 30 31 32 33 33 34 35 36
51 49 47 45 44 43 42 40 39 37 36 35 34 33 33 31 30 29 28 28 27 26 25 24 24 25 25 26 26 27 27 28 29 30 31 31 32 33 34 34 35 36 37
53 51 49 47 45 43 42 42 41 39 38 37 35 34 33 32 31 31 30 29 28 27 26 26 26 26 27 27 28 28 29 29 30 31 32 32 33 34 34 35 36 37 38
54 52 50 48 46 44 44 43 42 41 39 38 37 35 34 33 33 32 31 30 29 28 28 27 27 28 28 29 29 29 30 30 31 32 33 33 34 35 35 36 37 38 39
55 53 51 50 48 46 45 44 43 42 40 39 38 37 35 35 34 33 32 32 31 30 29 29 29 29 30 30 30 30 31 31 32 33 34 34 35 36 37 37 38 38 39
56 55 53 52 50 48 47 46 44 43 41 39 38 37 36 36 35 34 34 33 32 31 31 30 30 31 31 31 31 31 32 33 34 34 35 36 36 37 38 38 39 39 39
56 56 54 53 51 49 47 47 46 44 42 41 39 38 37 37 36 35 35 34 33 33 33 32 32 32 32 32 32 32 33 34 35 36 36 37 38 39 39 39 40 39 40
56 56 55 54 53 50 49 48 47 45 44 42 40 39 38 38 37 36 36 35 35 34 34 33 33 32 33 33 33 33 34 35 36 37 37 38 39 39 40 40 40 41 41
56 55 55 55 54 52 50 49 48 47 45 44 42 41 40 38 38 38 37 36 36 35 35 34 33 33 34 34 34 35 36 37 37 38 38 38 39 40 40 41 41 42 42
55 54 54 55 54 53 52 50 49 48 47 45 43 42 41 40 39 38 37 37 36 36 35 35 34 34 34 35 36 36 37 37 38 38 39 39 39 40 41 42 42 42 43
52 53 53 54 54 53 52 51 49 48 47 45 44 43 41 41 40 39 38 37 36 36 36 36 35 35 35 36 37 37 37 38 38 38 39 39 40 40 41 42 42 42 44
51 52 52 53 53 53 53 51 50 48 47 46 45 44 43 42 41 40 39 38 38 37 37 36 36 36 37 37 37 38 38 38 38 39 39 39 40 41 41 41 42 43 44
50 51 51 52 52 52 53 52 51 49 48 47 46 45 44 42 42 41 40 39 39 39 38 38 38 38 38 38 38 38 38 38 38 39 39 39 40 40 41 41 42 43 44
48 49 50 51 51 51 51 52 51 50 49 48 47 45 44 44 43 42 41 41 40 39 39 39 38 38 38 38 38 38 38 38 39 39 39 39 40 40 41 42 43 44 45
47 48 50 51 51 51 51 51 51 50 49 48 48 47 46 45 44 43 42 42 41 41 40 39 39 38 38 38 38 39 39 39 39 38 39 39 40 40 41 42 43 44 45
46 47 49 51 50 51 51 52 52 51 49 48 48 47 46 45 44 44 43 42 41 41 40 40 40 39 39 39 38 39 39 39 38 38 39 40 40 40 41 43 43 44 45
45 47 48 48 51 51 50 51 52 51 50 49 48 47 46 46 45 45 43 43 42 41 41 41 41 40 39 39 39 39 39 38 38 39 40 40 40 40 42 42 43 44 45
45 46 47 47 48 49 49 50 50 51 51 49 48 48 47 47 46 45 44 44 43 43 42 42 41 39 39 38 38 39 38 38 39 39 40 39 40 41 42 42 43 44 45
44 45 47 48 48 48 48 48 49 50 50 49 48 48 48 47 46 45 45 45 44 43 42 41 40 38 38 38 38 38 38 38 39 39 39 39 40 41 41 42 43 44 45
45 44 45 46 47 47 47 47 47 47 48 48 48 48 48 47 46 45 45 45 44 43 42 41 39 38 38 38 38 38 38 38 39 39 39 40 40 40 41 41 43 44 46
46 45 45 46 47 47 47 46 46 46 46 46 47 47 47 47 46 46 45 44 43 42 41 39 38 38 38 37 37 37 37 38 38 39 39 39 40 40 40 42 43 45 46
46 46 46 46 48 48 47 46 46 46 46 46 46 45 46 45 45 45 43 43 42 41 40 39 39 38 37 37 37 37 38 38 39 39 39 39 40 40 41 42 44 45 47
47 47 47 47 47 47 47 48 48 47 46 45 44 44 44 44 44 44 43 42 42 41 40 39 39 38 37 37 37 38 38 38 38 39 39 39 40 41 42 43 44 46 47
47 47 48 49 47 48 49 48 48 47 47 46 45 44 44 43 44 43 42 42 41 40 40 39 39 38 37 37 37 37 37 38 38 38 38 39 39 40 42 43 44 46 47
47 48 49 50 50 50 49 49 49 48 47 46 45 45 44 43 43 42 42 41 40 39 39 38 38 37 37 37 37 37 37 37 38 38 38 38 39 40 42 43 44 46 47

GEFSMW_500_meanwind_162.txt.gz
Wind_Speed
53 52 50 50 49 47 46 45 43 42 40 39 38 36 35 34 33 32 32 30 29 28 27 26 25 24 24 23 23 22 22 23 23 24 25 26 28 29 30 32 33 35 36
55 53 52 51 50 49 47 46 45 43 41 40 39 38 37 35 35 34 33 31 30 29 28 27 26 26 25 25 24 24 24 24 25 26 27 28 29 30 32 33 35 36 37
56 55 53 52 51 49 47 46 45 44 42 41 40 39 38 36 35 34 33 32 31 30 29 28 27 27 26 26 26 25 26 26 27 27 28 29 30 31 33 34 36 37 38
57 56 54 52 51 50 48 47 46 45 44 42 41 39 37 36 34 34 34 33 32 31 30 29 29 28 28 27 27 27 27 28 28 28 29 31 32 33 34 35 37 38 39
57 56 55 53 51 51 49 48 47 46 45 44 42 40 39 37 36 36 35 34 33 32 31 30 30 29 29 29 28 28 29 29 29 30 30 31 33 34 36 36 38 39 40
58 57 55 55 53 52 51 49 48 47 46 45 43 41 39 39 38 37 36 35 34 33 32 32 31 31 30 30 30 30 30 30 30 31 32 33 34 36 37 38 39 40 40
58 58 57 56 54 53 52 51 49 48 47 46 44 42 40 40 39 38 37 36 35 34 33 33 32 32 31 31 31 31 31 31 31 32 33 34 35 37 38 39 40 40 41
58 58 58 56 55 54 53 52 50 48 48 47 45 43 42 41 40 39 38 37 36 35 35 34 33 33 33 33 33 32 32 32 33 33 34 35 36 38 39 40 41 41 41
56 58 58 57 56 55 54 52 51 49 48 48 47 45 44 43 41 40 39 38 37 36 36 35 35 34 34 34 34 34 34 33 34 35 35 36 38 39 40 41 42 43 42
54 57 58 58 56 56 55 53 51 50 49 49 48 47 45 44 43 42 41 39 38 37 37 37 36 36 36 35 35 35 35 35 35 36 36 37 39 40 41 42 43 43 44
53 55 56 57 57 56 56 55 52 51 50 50 49 48 47 45 45 44 42 41 39 39 38 37 37 37 37 37 36 36 36 36 36 37 37 38 40 41 42 43 43 44 44
52 54 56 55 55 56 56 56 54 52 51 50 50 49 48 47 46 45 43 42 41 40 39 39 39 38 38 37 37 37 37 37 37 38 38 39 41 41 42 43 44 44 45
51 53 55 56 55 56 57 57 55 53 52 51 50 50 49 48 46 46 45 44 42 42 41 41 40 39 39 38 37 37 37 38 38 38 39 40 41 42 43 43 44 45 45
51 52 53 55 56 55 57 58 57 55 54 53 51 50 50 49 48 47 47 46 45 44 43 42 41 40 40 39 38 38 38 38 38 39 40 41 41 42 43 44 44 44 45
49 51 53 54 55 55 56 58 57 56 55 54 53 51 50 50 49 48 48 47 46 45 44 43 42 41 40 39 39 38 38 38 39 39 40 41 41 42 43 44 44 44 45
48 49 51 53 55 54 55 57 57 57 56 54 53 52 51 51 50 49 49 48 47 46 45 44 43 42 41 40 39 39 39 39 39 40 40 41 41 42 43 43 44 45 45
49 50 51 52 54 55 55 56 57 57 56 54 53 53 52 51 51 50 49 48 47 46 45 44 43 41 41 40 39 39 40 40 40 40 40 41 41 43 43 43 44 45 45
49 51 51 52 53 53 55 55 56 56 55 54 53 52 52 52 51 50 49 48 47 46 46 45 43 42 41 41 40 40 41 40 39 39 40 41 41 41 42 42 43 43 44
48 51 51 52 53 53 53 54 55 56 56 55 53 53 52 52 52 51 50 49 48 47 45 44 43 42 42 42 41 41 40 40 40 40 40 41 41 41 42 42 43 44 45
47 50 52 52 52 53 53 53 53 55 55 55 54 54 53 52 52 51 50 49 48 47 46 44 44 43 43 42 41 40 41 41 41 40 40 41 41 41 42 42 43 44 45
47 50 51 52 51 51 52 54 54 54 55 55 55 54 53 52 52 51 50 50 49 48 46 46 45 44 43 42 41 41 41 41 41 41 41 41 40 41 41 42 43 44 45
45 48 51 52 52 51 51 52 54 54 54 55 54 53 53 53 53 52 50 50 50 48 47 47 46 45 43 41 41 41 41 41 41 41 40 40 40 40 41 42 43 44 45
44 47 49 51 51 52 52 52 52 53 54 54 54 52 51 52 52 51 50 49 49 49 48 48 47 45 43 43 42 41 40 40 40 40 39 39 39 39 40 41 42 43 45
45 46 48 50 50 50 51 51 51 51 52 53 54 53 52 51 51 50 50 48 48 47 47 46 45 45 44 43 42 41 40 39 39 39 39 38 38 39 40 41 42 43 44
45 46 47 47 48 49 50 50 50 49 50 51 52 53 53 52 51 50 49 48 48 47 46 45 45 44 44 42 42 41 39 38 38 38 38 38 38 39 40 41 41 42 43
44 45 47 47 47 48 49 49 48 48 48 48 49 50 51 51 50 50 49 48 47 47 46 45 44 43 42 41 40 39 38 38 37 37 37 38 38 38 39 40 40 41 42

GEFSMW_500_meanwind_168.txt.gz
Wind_Speed
52 54 54 54 55 55 55 55 53 52 51 49 48 47 46 45 44 42 41 39 38 37 35 34 32 31 29 27 26 25 24 23 23 23 23 23 24 25 26 27 28 29 31
53 54 53 54 55 55 55 54 53 52 51 50 49 48 47 46 44 43 42 41 39 37 36 35 33 32 30 29 28 26 25 25 24 24 24 25 25 26 27 28 29 31 32
52 54 53 54 54 54 54 54 53 53 52 51 50 49 48 47 45 43 42 41 40 38 37 36 35 33 32 30 29 28 27 26 26 26 26 26 27 28 28 30 31 32 34
51 53 54 54 54 53 53 55 54 53 53 52 51 49 48 46 45 44 43 42 41 39 38 37 35 34 32 31 30 29 28 28 27 28 28 28 29 30 30 31 32 33 35
51 52 54 54 53 54 54 55 54 53 53 53 51 50 49 47 46 45 44 43 42 40 39 38 36 35 34 33 32 31 30 29 29 29 30 30 31 31 32 32 33 34 36
50 51 53 54 54 54 55 55 55 54 53 52 51 50 49 48 47 46 45 44 42 41 40 39 37 36 35 34 33 32 32 31 31 31 31 32 32 33 33 34 34 35 37
47 50 52 53 54 54 54 55 55 54 53 52 52 50 49 48 48 46 45 44 43 42 40 39 38 38 36 35 35 34 33 33 32 33 33 33 34 34 35 35 36 37 38
46 48 50 52 54 54 54 55 55 53 52 52 51 51 50 49 48 47 46 45 44 43 42 41 40 39 38 37 36 36 35 34 34 34 35 35 35 36 36 36 37 38 39
45 47 50 52 54 55 55 55 55 53 53 52 52 51 50 49 48 48 47 46 45 44 43 42 41 41 39 38 37 37 36 36 36 36 36 36 36 37 37 38 39 39 40
45 46 49 51 53 55 55 56 56 56 53 52 51 51 49 49 48 48 47 46 45 44 44 43 42 42 41 40 39 38 37 37 37 37 37 37 37 37 38 39 40 40 41
44 46 49 51 52 54 55 56 56 55 54 52 51 51 50 50 50 49 47 46 46 45 44 44 43 42 41 41 40 39 39 39 39 39 39 38 38 38 39 40 40 41 42
43 45 48 51 53 55 56 56 56 54 53 52 52 52 51 51 51 49 48 47 46 46 45 45 44 43 42 41 41 40 40 40 40 40 39 39 39 40 40 41 41 42 42
43 43 46 49 53 56 56 57 56 54 53 52 52 52 52 51 51 50 48 48 47 47 46 45 45 44 43 43 42 42 41 41 41 40 40 40 40 41 41 41 42 42 42
42 43 45 47 51 55 55 57 56 55 55 53 53 53 52 51 50 50 50 50 49 48 47 46 46 46 44 44 43 43 42 42 41 41 40 40 40 41 41 42 42 42 43
42 43 44 47 50 53 54 55 56 56 55 55 54 54 53 52 51 50 50 51 50 49 48 48 48 47 46 45 44 43 43 42 41 41 41 41 41 41 41 41 42 42 43
43 44 45 46 48 51 54 55 55 55 56 56 55 54 53 53 52 52 51 51 50 49 49 49 49 48 46 46 45 44 44 43 42 41 41 40 41 41 41 41 42 42 43
43 45 45 47 48 50 53 55 55 54 54 54 55 55 54 54 53 53 52 51 50 49 50 50 49 48 47 45 44 44 44 43 42 42 42 41 41 41 40 41 42 42 42
43 46 47 48 48 50 52 55 56 55 55 55 55 55 55 54 53 53 52 51 50 49 49 48 48 48 47 46 44 43 43 43 42 42 42 41 40 40 40 41 42 42 42
43 45 47 49 48 49 51 53 54 55 55 55 54 54 55 55 53 52 51 51 50 49 49 48 47 46 46 46 45 44 43 42 41 41 41 41 40 40 41 42 42 43 43
43 45 46 48 49 49 50 51 53 55 55 55 55 54 55 55 55 53 52 51 50 49 48 48 47 47 46 45 44 44 43 42 41 40 40 40 40 41 41 42 42 42 42
41 44 45 47 48 49 50 50 51 53 55 54 54 54 54 54 54 53 53 52 51 50 48 47 47 46 45 44 43 42 42 42 41 41 40 40 41 41 42 42 41 41 41
39 41 43 46 48 49 50 50 51 52 54 54 53 54 54 53 53 52 52 51 51 51 49 48 47 46 45 43 43 42 42 41 40 40 40 41 41 41 41 41 40 40 41
39 41 42 44 47 49 50 51 51 52 53 53 53 53 54 54 53 52 51 50 49 49 49 47 44 43 43 43 42 41 41 39 39 39 40 41 41 40 40 39 39 40 41
37 40 42 43 46 48 49 51 51 52 52 52 53 53 53 53 52 51 50 50 48 48 48 47 46 44 43 42 42 40 40 39 39 39 40 40 40 39 38 38 38 39 40
36 38 40 42 44 46 49 49 49 51 52 52 52 52 52 52 51 50 49 49 48 46 46 47 46 45 43 43 42 41 40 40 40 40 40 40 39 38 37 37 38 38 38
36 37 39 40 41 43 46 48 47 48 49 50 51 51 50 50 50 49 48 47 47 45 44 44 46 46 45 43 42 41 41 41 41 41 40 39 38 37 37 37 37 37 37

GEFSMW_500_meanwind_174.txt.gz
Wind_Speed
42 42 44 46 47 50 51 52 53 53 54 54 54 53 51 50 50 49 48 47 45 44 43 42 40 39 37 36 34 33 32 31 29 28 27 26 26 26 26 27 27 28 29
40 41 43 45 46 48 49 51 52 53 53 54 54 53 52 50 50 49 47 47 45 44 43 42 41 40 39 37 36 35 33 32 31 30 29 28 27 27 28 29 29 30 30
37 40 42 44 45 46 49 50 52 52 52 53 54 53 53 51 51 50 48 48 47 45 44 42 41 40 39 38 37 35 34 33 32 31 30 30 29 29 29 30 31 31 32
37 39 40 42 44 44 47 49 51 51 52 52 54 53 53 51 50 50 50 48 48 46 44 43 42 41 40 39 38 36 35 34 33 32 32 31 31 31 31 32 32 33 34
36 37 39 40 42 44 46 48 49 51 51 52 52 53 53 51 50 50 50 48 47 46 45 43 42 41 41 40 38 37 36 35 34 33 33 32 33 33 33 33 34 35 36
35 36 38 39 41 43 45 47 47 49 51 52 52 52 53 53 53 51 51 48 47 47 46 45 43 42 42 41 39 38 37 36 35 35 34 34 34 34 34 35 36 36 37
34 35 37 39 40 42 44 46 47 47 48 50 52 53 53 53 53 51 51 49 48 46 46 45 44 43 42 41 40 39 37 37 36 35 35 35 35 35 36 36 37 37 38
31 34 36 37 40 42 43 45 47 47 47 48 50 52 53 53 53 52 51 49 47 47 45 45 44 43 43 42 41 40 39 38 37 37 36 36 36 36 37 37 38 38 39
31 34 34 36 39 42 44 45 47 47 47 47 48 51 52 52 51 52 52 49 46 45 46 45 44 44 43 43 41 41 40 39 38 37 37 37 37 38 38 38 39 40 40
31 33 35 35 37 41 43 45 46 47 45 47 48 49 51 52 51 51 51 48 46 44 44 44 44 44 43 43 42 41 41 40 39 38 38 38 38 38 38 39 39 40 41
32 33 35 36 38 40 42 45 46 47 46 47 48 49 51 51 50 49 47 48 48 47 46 43 42 42 42 42 42 42 41 40 40 39 39 39 39 39 39 39 40 40 41
34 35 36 37 39 40 41 44 47 47 46 47 49 49 49 50 49 49 48 47 47 46 45 44 44 43 42 41 41 41 41 40 40 40 40 40 39 39 39 40 40 41 42
34 36 38 39 40 42 41 43 47 48 48 48 49 48 48 49 48 47 48 47 47 46 46 45 45 45 43 42 41 41 41 40 41 41 41 40 39 39 39 40 40 41 42
34 37 39 40 41 42 42 43 46 47 49 50 50 49 48 48 49 49 48 47 47 46 46 45 45 45 45 43 42 41 41 40 41 41 41 41 40 39 39 40 41 42 42
35 37 38 40 41 42 44 45 46 46 48 50 51 50 50 50 50 50 49 48 47 46 45 45 45 45 44 43 42 42 42 41 41 40 40 40 40 40 41 41 41 42 42
35 37 39 40 41 42 43 44 46 47 50 51 51 51 52 52 52 51 50 48 47 47 46 45 45 44 44 43 43 43 44 43 42 40 40 40 40 40 40 40 41 42 42
35 37 39 40 41 42 43 44 46 49 50 51 51 51 51 52 52 52 51 49 47 47 47 46 45 44 44 44 43 43 43 43 43 42 41 40 39 39 39 40 41 42 42
35 36 38 40 41 42 43 44 46 49 51 50 51 51 50 49 50 51 51 50 49 47 46 46 45 44 44 44 43 43 43 43 43 42 42 41 39 38 39 40 40 41 41
34 36 38 39 40 41 43 44 46 47 48 49 49 51 50 49 48 50 50 50 49 48 46 46 45 43 43 43 43 43 43 42 42 41 41 40 39 39 40 40 39 40 39
33 35 38 40 41 42 43 44 45 46 48 47 49 51 51 50 49 50 50 50 49 48 47 47 46 44 43 43 43 42 41 41 41 40 40 39 39 40 39 38 38 38 39
34 35 36 38 41 43 44 44 44 46 47 48 48 50 52 51 51 50 50 50 49 48 47 47 46 44 43 42 42 41 40 40 40 39 38 37 38 38 38 37 37 38 39
33 34 35 37 39 43 45 46 45 46 47 48 49 49 50 52 52 51 51 50 50 48 46 45 44 43 42 42 41 40 40 39 38 37 37 37 37 37 37 37 38 37 38
33 34 35 36 37 40 43 45 46 47 47 48 49 49 50 51 52 52 51 50 50 49 47 45 44 43 42 42 41 39 39 38 37 36 36 36 36 36 37 37 37 37 38
35 35 36 37 37 38 41 43 45 47 47 47 47 48 48 48 49 50 50 49 48 48 47 46 45 43 41 41 41 39 38 37 36 36 36 35 36 36 36 36 37 37 37
34 35 36 38 38 38 39 41 44 46 47 47 46 47 47 47 48 48 48 47 47 47 46 45 44 43 41 39 38 38 37 36 35 36 35 35 35 36 36 36 37 37 36
33 34 35 35 36 36 37 39 42 44 46 47 47 47 46 45 46 47 48 48 47 46 46 45 44 43 41 40 40 39 37 37 37 36 36 35 35 36 36 36 36 35 34